Home > Weather > Barysaw > Past weeks

Flag for Belarus Weather for the Past 2 Weeks in Barysaw, Belarus

Now
39 °F

Clear.


Feels Like: 37 °F
Forecast: 45 / 69 °F
Wind: 3 mph from Northwest

Location: Minsk

Current Time: May 6, 2016 at 5:51:21 AM

Latest Report: May 6, 2016 at 5:30 AM


Visibility: 10 mi

Pressure: 30.12 "Hg

Humidity: 81%

Dew Point: 34 °F

Location of BarysawLocation

Historic Weather in Barysaw — Graph

°F

Barysaw Temperature Yesterday

Maximum temperature yesterday: 68 °F (at 3:30 PM)
Minimum temperature yesterday: 46 °F (at 1:00 AM)
Average temperature yesterday: 57 °F

High & Low Weather Summary for the Past Weeks

 TemperatureHumidityPressure
High68 °F (May 5, 3:30 PM)100% (Apr 24, 10:00 PM)30.27 "Hg (Apr 24, 10:00 PM)
Low28 °F (Apr 29, 3:00 AM)23% (May 5, 5:30 PM)29.50 "Hg (Apr 26, 6:00 AM)
Average47 °F75%29.94 "Hg
* Reported Apr 21 4:00 AM — May 6 4:30 AM, Barysaw, Weather by CustomWeather, © 2016

Note: Actual official high and low records may vary slightly from our data, if they occured in-between our weather recording intervals... More about our weather records

Advertising

Barysaw Weather History for the Previous 24 Hours

Scroll right to see more
 ConditionsComfort  
Time TempWeatherWind HumidityBarometerVisibility
4:30 AM
Fri, May 6
41 °FClear.3 mph76%30.12 "Hg10 mi
4:00 AM41 °FClear.3 mph76%30.12 "Hg10 mi
3:30 AM39 °FClear.3 mph87%30.12 "Hg10 mi
3:00 AM41 °FClear.3 mph81%30.12 "Hg10 mi
2:30 AM43 °FClear.3 mph76%30.12 "Hg10 mi
2:00 AM45 °FClear.3 mph71%30.12 "Hg10 mi
1:30 AM45 °FClear.3 mph71%30.12 "Hg10 mi
1:00 AM43 °FClear.3 mph76%30.12 "Hg10 mi
12:30 AM45 °FClear.3 mph71%30.12 "Hg10 mi
12:00 AM45 °FClear.3 mph71%30.12 "Hg10 mi
11:30 PM
Thu, May 5
46 °FClear.1 mph66%30.12 "Hg10 mi
11:00 PM46 °FClear.No wind66%30.12 "Hg10 mi
10:30 PM48 °FClear.No wind62%30.12 "Hg10 mi
10:00 PM50 °FClear.No wind62%30.12 "Hg10 mi
9:30 PM55 °FSunny.3 mph47%30.09 "Hg10 mi
9:00 PM61 °FSunny.3 mph34%30.09 "Hg10 mi
8:30 PM61 °FSunny.6 mph34%30.09 "Hg10 mi
8:00 PM64 °FSunny.10 mph28%30.09 "Hg10 mi
7:30 PM66 °FSunny.10 mph26%30.09 "Hg10 mi
7:00 PM66 °FSunny.13 mph24%30.09 "Hg10 mi
6:30 PM66 °FSunny.13 mph24%30.09 "Hg10 mi
6:00 PM66 °FSunny.13 mph24%30.09 "Hg10 mi
5:30 PM68 °FSunny.17 mph23%30.09 "Hg10 mi
5:00 PM68 °FSunny.13 mph24%30.09 "Hg10 mi
4:30 PM68 °FSunny.15 mph28%30.09 "Hg10 mi
4:00 PM68 °FSunny.15 mph26%30.09 "Hg10 mi
3:30 PM68 °FSunny.15 mph28%30.09 "Hg10 mi
3:00 PM66 °FSunny.17 mph30%30.09 "Hg10 mi
2:30 PM66 °FSunny.15 mph32%30.09 "Hg10 mi
2:00 PM66 °FSunny.15 mph35%30.09 "Hg10 mi
1:30 PM66 °FSunny.13 mph35%30.09 "Hg10 mi
1:00 PM66 °FSunny.15 mph35%30.09 "Hg10 mi
12:30 PM66 °FScattered clouds.13 mph40%30.09 "HgN/A
12:00 PM66 °FScattered clouds.10 mph40%30.09 "HgN/A
11:30 AM64 °FSunny.13 mph49%30.12 "Hg10 mi
11:00 AM64 °FSunny.13 mph49%30.09 "Hg10 mi
10:30 AM63 °FSunny.10 mph49%30.09 "Hg10 mi
10:00 AM63 °FSunny.8 mph49%30.09 "Hg10 mi
9:30 AM61 °FSunny.6 mph55%30.12 "Hg10 mi
9:00 AM59 °FSunny.8 mph59%30.12 "Hg10 mi
8:30 AM57 °FSunny.10 mph63%30.09 "Hg10 mi
8:00 AM54 °FSunny.6 mph77%30.12 "Hg10 mi
7:30 AM52 °FSunny.6 mph77%30.09 "Hg10 mi
7:00 AM50 °FSunny.3 mph82%30.09 "Hg10 mi
6:30 AM46 °FSunny.6 mph87%30.09 "Hg10 mi
6:00 AM46 °FClear.3 mph87%30.09 "Hg10 mi
5:30 AM46 °FClear.3 mph87%30.09 "Hg10 mi
5:00 AM46 °FClear.3 mph87%30.09 "Hg10 mi
Weather by CustomWeather, © 2016

See weather overviewHow to use our weather pages